| time (UTC) | temp F | wind direction | speed MPH | gust MPH | rain 1hr in | rain 24hr in | rain mn in | humidity % | barometer mb |
| 20260502130633 | 56 | 20 | 11.0 | 17.0 | 0.00 | 0.00 | 0.00 | 89 | 1017.6 |
| 20260502123411 | 56 | 359 | 11.0 | 18.0 | 0.00 | 0.00 | 0.00 | 89 | 1017.2 |
| 20260502122916 | 56 | 336 | 10.0 | 17.0 | 0.00 | 0.00 | 0.00 | 89 | 1017.1 |
| 20260502122401 | 56 | 345 | 9.0 | 16.0 | 0.00 | 0.00 | 0.00 | 89 | 1017.1 |
| 20260502121901 | 56 | 350 | 9.0 | 15.0 | 0.00 | 0.00 | 0.00 | 89 | 1017.1 |
| 20260502121401 | 56 | 5 | 9.0 | 16.0 | 0.00 | 0.00 | 0.00 | 89 | 1016.9 |
| 20260502120901 | 56 | 20 | 8.0 | 16.0 | 0.00 | 0.00 | 0.00 | 89 | 1016.9 |
| 20260502120359 | 56 | 347 | 7.0 | 16.0 | 0.00 | 0.00 | 0.00 | 89 | 1016.9 |
| 20260502115859 | 56 | 0 | 8.0 | 13.0 | 0.00 | 0.00 | 0.00 | 89 | 1016.6 |
| 20260502115358 | 56 | 338 | 8.0 | 13.0 | 0.00 | 0.00 | 0.00 | 89 | 1016.6 |
| 20260502114856 | 56 | 3 | 7.0 | 12.0 | 0.00 | 0.00 | 0.00 | 89 | 1016.6 |
| 20260502114357 | 56 | 31 | 8.0 | 13.0 | 0.00 | 0.00 | 0.00 | 89 | 1016.2 |
| 20260502114129 | 56 | 1 | 8.0 | 13.0 | 0.00 | 0.00 | 0.00 | 89 | 1016.2 |
| 20260502113355 | 56 | 346 | 8.0 | 13.0 | 0.00 | 0.00 | 0.00 | 89 | 1016.2 |
| 20260502112846 | 56 | 90 | 7.0 | 13.0 | 0.00 | 0.00 | 0.00 | 89 | 1016.1 |
| 20260502112335 | 56 | 4 | 7.0 | 13.0 | 0.00 | 0.00 | 0.00 | 89 | 1016.1 |
| 20260502111831 | 56 | 10 | 7.0 | 13.0 | 0.00 | 0.00 | 0.00 | 89 | 1016.1 |
| 20260502111331 | 56 | 13 | 7.0 | 14.0 | 0.00 | 0.00 | 0.00 | 89 | 1015.9 |
| 20260502110830 | 56 | 18 | 7.0 | 14.0 | 0.00 | 0.00 | 0.00 | 89 | 1015.9 |
| 20260502110330 | 56 | 90 | 9.0 | 14.0 | 0.00 | 0.00 | 0.00 | 89 | 1015.9 |
| 20260502105832 | 56 | 19 | 10.0 | 16.0 | 0.00 | 0.00 | 0.00 | 89 | 1015.6 |
| 20260502105602 | 56 | 9 | 9.0 | 16.0 | 0.00 | 0.00 | 0.00 | 89 | 1015.6 |
| 20260502104830 | 56 | 20 | 9.0 | 15.0 | 0.00 | 0.00 | 0.00 | 89 | 1015.6 |
| 20260502104551 | 56 | 5 | 8.0 | 14.0 | 0.00 | 0.00 | 0.00 | 89 | 1015.3 |
| 20260502103832 | 56 | 90 | 8.0 | 14.0 | 0.00 | 0.00 | 0.00 | 89 | 1015.3 |
| 20260502103331 | 56 | 35 | 8.0 | 13.0 | 0.00 | 0.00 | 0.00 | 89 | 1015.3 |
| 20260502103105 | 56 | 0 | 8.0 | 13.0 | 0.00 | 0.00 | 0.00 | 89 | 1015.1 |
| 20260502102325 | 56 | 351 | 7.0 | 12.0 | 0.00 | 0.00 | 0.00 | 89 | 1015.1 |
| 20260502101815 | 56 | 90 | 6.0 | 11.0 | 0.00 | 0.00 | 0.00 | 89 | 1015.1 |
| 20260502101305 | 56 | 90 | 6.0 | 10.0 | 0.00 | 0.00 | 0.00 | 89 | 1015.0 |
| 20260502100759 | 56 | 3 | 6.0 | 10.0 | 0.00 | 0.00 | 0.00 | 89 | 1015.0 |
| 20260502100250 | 56 | 4 | 5.0 | 8.0 | 0.00 | 0.00 | 0.00 | 89 | 1015.0 |
| 20260502091144 | 57 | 7 | 7.0 | 16.0 | 0.00 | 0.00 | 0.00 | 89 | 1014.8 |
| 20260502090645 | 57 | 340 | 7.0 | 16.0 | 0.00 | 0.00 | 0.00 | 89 | 1014.8 |
| 20260502090145 | 57 | 90 | 9.0 | 16.0 | 0.00 | 0.00 | 0.00 | 89 | 1014.8 |
| 20260502071049 | 57 | 1 | 10.0 | 15.0 | 0.00 | 0.00 | 0.00 | 89 | 1014.2 |
| 20260502070809 | 57 | 90 | 11.0 | 20.0 | 0.00 | 0.00 | 0.00 | 89 | 1014.2 |
| 20260502070047 | 57 | 12 | 11.0 | 20.0 | 0.00 | 0.00 | 0.00 | 89 | 1014.2 |
| 20260502065547 | 57 | 9 | 12.0 | 23.0 | 0.00 | 0.00 | 0.00 | 89 | 1014.3 |
| 20260502065045 | 57 | 90 | 13.0 | 23.0 | 0.00 | 0.00 | 0.00 | 89 | 1014.3 |
| 20260502064547 | 57 | 14 | 13.0 | 23.0 | 0.00 | 0.00 | 0.00 | 89 | 1014.3 |
| 20260502064045 | 57 | 3 | 11.0 | 23.0 | 0.00 | 0.00 | 0.00 | 89 | 1014.1 |
| 20260502063545 | 57 | 354 | 10.0 | 18.0 | 0.00 | 0.00 | 0.00 | 89 | 1014.1 |
| 20260502063034 | 57 | 5 | 11.0 | 18.0 | 0.00 | 0.00 | 0.00 | 89 | 1014.1 |
| 20260502062532 | 57 | 8 | 13.0 | 20.0 | 0.00 | 0.00 | 0.00 | 89 | 1014.0 |
| 20260502062027 | 57 | 344 | 14.0 | 21.0 | 0.00 | 0.00 | 0.00 | 89 | 1014.0 |
| 20260502061513 | 58 | 354 | 13.0 | 23.0 | 0.00 | 0.00 | 0.00 | 89 | 1014.0 |
| 20260502061003 | 58 | 16 | 13.0 | 23.0 | 0.00 | 0.00 | 0.00 | 89 | 1013.9 |
| 20260502060456 | 58 | 341 | 14.0 | 22.0 | 0.00 | 0.00 | 0.00 | 89 | 1013.9 |
| 20260502055953 | 58 | 342 | 14.0 | 24.0 | 0.00 | 0.00 | 0.00 | 90 | 1013.9 |
| 20260502055727 | 58 | 8 | 12.0 | 24.0 | 0.00 | 0.00 | 0.00 | 90 | 1013.8 |
| 20260502054955 | 57 | 90 | 12.0 | 18.0 | 0.00 | 0.00 | 0.00 | 90 | 1013.8 |
| 20260502054453 | 57 | 349 | 11.0 | 18.0 | 0.00 | 0.00 | 0.00 | 89 | 1013.8 |
| 20260502053954 | 57 | 90 | 10.0 | 19.0 | 0.00 | 0.00 | 0.00 | 89 | 1013.7 |
| 20260502053717 | 57 | 1 | 9.0 | 19.0 | 0.00 | 0.00 | 0.00 | 90 | 1013.7 |
| 20260502052954 | 57 | 8 | 10.0 | 19.0 | 0.00 | 0.00 | 0.00 | 90 | 1013.7 |
| 20260502052454 | 57 | 344 | 11.0 | 19.0 | 0.00 | 0.00 | 0.00 | 90 | 1013.5 |
| 20260502052213 | 57 | 0 | 11.0 | 19.0 | 0.00 | 0.00 | 0.00 | 90 | 1013.5 |
| 20260502051455 | 57 | 11 | 11.0 | 18.0 | 0.00 | 0.00 | 0.00 | 90 | 1013.5 |
| 20260502051212 | 57 | 11 | 12.0 | 22.0 | 0.00 | 0.00 | 0.00 | 90 | 1013.3 |
| 20260502050659 | 57 | 26 | 13.0 | 22.0 | 0.00 | 0.00 | 0.00 | 90 | 1013.3 |
| 20260502045930 | 57 | 4 | 13.0 | 24.0 | 0.00 | 0.00 | 0.00 | 90 | 1013.0 |
| 20260502045416 | 57 | 43 | 14.0 | 24.0 | 0.00 | 0.00 | 0.00 | 90 | 1013.0 |
| 20260502044906 | 57 | 7 | 15.0 | 24.0 | 0.00 | 0.00 | 0.00 | 90 | 1013.0 |
| 20260502044400 | 57 | 90 | 14.0 | 24.0 | 0.00 | 0.00 | 0.00 | 90 | 1012.9 |
| 20260502043849 | 57 | 90 | 14.0 | 23.0 | 0.00 | 0.00 | 0.00 | 90 | 1012.9 |
| 20260502043336 | 58 | 26 | 14.0 | 23.0 | 0.00 | 0.00 | 0.00 | 90 | 1012.9 |
| 20260502042842 | 58 | 14 | 15.0 | 24.0 | 0.00 | 0.00 | 0.00 | 90 | 1012.9 |
| 20260502042542 | 58 | 90 | 15.0 | 24.0 | 0.00 | 0.00 | 0.00 | 90 | 1012.9 |
| 20260502041809 | 58 | 13 | 15.0 | 24.0 | 0.00 | 0.00 | 0.00 | 90 | 1012.9 |
| 20260502041534 | 58 | 16 | 14.0 | 23.0 | 0.00 | 0.00 | 0.00 | 90 | 1012.8 |
| 20260502040750 | 58 | 344 | 15.0 | 24.0 | 0.00 | 0.00 | 0.00 | 90 | 1012.8 |
| 20260502040244 | 58 | 7 | 15.0 | 25.0 | 0.00 | 0.00 | 0.00 | 90 | 1012.8 |
| 20260502035735 | 58 | 7 | 14.0 | 25.0 | 0.00 | 0.00 | 0.00 | 90 | 1012.8 |
| 20260502035509 | 59 | 356 | 13.0 | 23.0 | 0.00 | 0.00 | 0.00 | 90 | 1012.8 |
| 20260502034734 | 59 | 18 | 13.0 | 21.0 | 0.00 | 0.00 | 0.00 | 90 | 1012.8 |
| 20260502034452 | 59 | 350 | 13.0 | 25.0 | 0.00 | 0.00 | 0.00 | 90 | 1012.5 |
| 20260502034005 | 59 | 19 | 14.0 | 25.0 | 0.00 | 0.00 | 0.00 | 90 | 1012.5 |
| 20260502033500 | 59 | 20 | 14.0 | 25.0 | 0.00 | 0.00 | 0.00 | 90 | 1012.5 |
| 20260502032235 | 60 | 336 | 12.0 | 24.0 | 0.00 | 0.00 | 0.00 | 90 | 1012.4 |
| 20260502031734 | 60 | 19 | 12.0 | 24.0 | 0.00 | 0.00 | 0.00 | 90 | 1012.4 |
| 20260502031238 | 60 | 355 | 13.0 | 20.0 | 0.00 | 0.00 | 0.00 | 90 | 1012.1 |
| 20260502030735 | 60 | 23 | 12.0 | 22.0 | 0.00 | 0.00 | 0.00 | 90 | 1012.1 |
| 20260502030452 | 60 | 31 | 12.0 | 22.0 | 0.00 | 0.00 | 0.00 | 90 | 1012.1 |
| 20260502025719 | 60 | 1 | 11.0 | 22.0 | 0.00 | 0.00 | 0.00 | 90 | 1011.7 |
| 20260502025214 | 60 | 5 | 11.0 | 20.0 | 0.00 | 0.00 | 0.00 | 90 | 1011.7 |
| 20260502024715 | 60 | 353 | 11.0 | 17.0 | 0.00 | 0.00 | 0.00 | 90 | 1011.7 |
| 20260502024213 | 60 | 339 | 11.0 | 18.0 | 0.00 | 0.00 | 0.00 | 90 | 1011.4 |
| 20260502023717 | 60 | 2 | 11.0 | 21.0 | 0.00 | 0.00 | 0.00 | 90 | 1011.4 |
| 20260502023216 | 60 | 5 | 12.0 | 21.0 | 0.00 | 0.00 | 0.00 | 90 | 1011.4 |
| 20260502022714 | 60 | 14 | 11.0 | 21.0 | 0.00 | 0.00 | 0.00 | 90 | 1011.0 |
| 20260502022215 | 60 | 355 | 11.0 | 21.0 | 0.00 | 0.00 | 0.00 | 91 | 1011.0 |
| 20260502021715 | 60 | 359 | 11.0 | 21.0 | 0.00 | 0.00 | 0.00 | 91 | 1011.0 |
| 20260502021214 | 60 | 3 | 11.0 | 21.0 | 0.00 | 0.00 | 0.00 | 90 | 1010.8 |
| 20260502020715 | 60 | 18 | 11.0 | 21.0 | 0.00 | 0.00 | 0.00 | 90 | 1010.8 |
| 20260502020429 | 60 | 9 | 11.0 | 20.0 | 0.00 | 0.00 | 0.00 | 90 | 1010.8 |
| 20260502015702 | 61 | 359 | 12.0 | 20.0 | 0.00 | 0.00 | 0.00 | 90 | 1010.4 |
| 20260502015202 | 61 | 12 | 12.0 | 20.0 | 0.00 | 0.00 | 0.00 | 90 | 1010.4 |
| 20260502014702 | 61 | 341 | 11.0 | 18.0 | 0.00 | 0.00 | 0.00 | 90 | 1010.4 |
| 20260502014207 | 61 | 349 | 11.0 | 18.0 | 0.00 | 0.00 | 0.00 | 90 | 1009.9 |
| 20260502013703 | 61 | 342 | 12.0 | 18.0 | 0.00 | 0.00 | 0.00 | 90 | 1009.9 |
| 20260502013206 | 61 | 13 | 11.0 | 18.0 | 0.00 | 0.00 | 0.00 | 90 | 1009.9 |
| 20260502012704 | 61 | 31 | 12.0 | 19.0 | 0.00 | 0.00 | 0.00 | 90 | 1010.0 |
| 20260502012151 | 61 | 11 | 11.0 | 19.0 | 0.00 | 0.00 | 0.00 | 90 | 1010.0 |
| 20260502011636 | 61 | 3 | 11.0 | 19.0 | 0.00 | 0.00 | 0.00 | 90 | 1010.0 |
| 20260502011135 | 61 | 17 | 11.0 | 19.0 | 0.00 | 0.00 | 0.00 | 90 | 1009.6 |
| 20260502010859 | 61 | 18 | 11.0 | 19.0 | 0.00 | 0.00 | 0.00 | 90 | 1009.6 |
| 20260502010136 | 61 | 14 | 11.0 | 19.0 | 0.00 | 0.00 | 0.00 | 90 | 1009.6 |
| 20260502005636 | 61 | 11 | 12.0 | 22.0 | 0.00 | 0.00 | 0.00 | 90 | 1009.3 |
| 20260502005135 | 61 | 359 | 14.0 | 22.0 | 0.00 | 0.00 | 0.00 | 90 | 1009.3 |
| 20260502004638 | 62 | 26 | 13.0 | 21.0 | 0.00 | 0.00 | 0.00 | 90 | 1009.3 |
| 20260502004134 | 62 | 347 | 13.0 | 20.0 | 0.00 | 0.00 | 0.00 | 90 | 1009.7 |
| 20260502003635 | 62 | 9 | 15.0 | 23.0 | 0.00 | 0.00 | 0.00 | 90 | 1009.7 |
| 20260502003135 | 62 | 338 | 15.0 | 25.0 | 0.00 | 0.00 | 0.00 | 90 | 1009.7 |
| 20260502002638 | 62 | 356 | 15.0 | 25.0 | 0.00 | 0.00 | 0.00 | 90 | 1009.4 |
| 20260502002129 | 62 | 355 | 15.0 | 25.0 | 0.00 | 0.00 | 0.00 | 90 | 1009.4 |
| 20260502001623 | 62 | 352 | 14.0 | 23.0 | 0.00 | 0.00 | 0.00 | 90 | 1009.4 |
| 20260502001113 | 62 | 18 | 14.0 | 23.0 | 0.00 | 0.00 | 0.00 | 90 | 1009.2 |
| 20260502000602 | 62 | 339 | 14.0 | 23.0 | 0.00 | 0.00 | 0.00 | 90 | 1009.2 |
| 20260502000319 | 62 | 356 | 13.0 | 23.0 | 0.00 | 0.00 | 0.00 | 90 | 1009.2 |
| 20260501235812 | 63 | 354 | 14.0 | 23.0 | 0.00 | 0.00 | 0.00 | 90 | 1009.2 |
| 20260501235046 | 63 | 90 | 14.0 | 23.0 | 0.00 | 0.00 | 0.00 | 90 | 1009.2 |
| 20260501234547 | 63 | 336 | 14.0 | 25.0 | 0.00 | 0.00 | 0.00 | 90 | 1009.2 |
| 20260501234046 | 63 | 22 | 15.0 | 25.0 | 0.00 | 0.00 | 0.00 | 90 | 1008.2 |
| 20260501233547 | 63 | 3 | 14.0 | 23.0 | 0.00 | 0.00 | 0.00 | 90 | 1008.2 |
| 20260501233045 | 63 | 3 | 15.0 | 23.0 | 0.00 | 0.00 | 0.00 | 90 | 1008.2 |
| 20260501232547 | 63 | 29 | 16.0 | 31.0 | 0.00 | 0.00 | 0.00 | 90 | 1008.1 |
| 20260501232046 | 63 | 12 | 17.0 | 31.0 | 0.00 | 0.00 | 0.00 | 90 | 1008.1 |
| 20260501231547 | 63 | 15 | 19.0 | 37.0 | 0.00 | 0.00 | 0.00 | 90 | 1008.1 |
| 20260501231047 | 64 | 341 | 18.0 | 37.0 | 0.00 | 0.00 | 0.00 | 90 | 1008.1 |
| 20260501230546 | 64 | 342 | 19.0 | 37.0 | 0.00 | 0.00 | 0.00 | 90 | 1008.1 |
| 20260501230046 | 64 | 342 | 22.0 | 37.0 | 0.00 | 0.00 | 0.00 | 90 | 1008.1 |
| 20260501225541 | 64 | 327 | 16.0 | 29.0 | 0.00 | 0.00 | 0.00 | 90 | 1006.1 |
| 20260501225259 | 64 | 334 | 13.0 | 20.0 | 0.00 | 0.00 | 0.00 | 90 | 1006.1 |
| 20260501224533 | 64 | 15 | 13.0 | 19.0 | 0.00 | 0.00 | 0.00 | 90 | 1006.1 |
| 20260501224033 | 64 | 19 | 13.0 | 23.0 | 0.00 | 0.00 | 0.00 | 90 | 1005.1 |
| 20260501223533 | 64 | 45 | 13.0 | 23.0 | 0.00 | 0.00 | 0.00 | 90 | 1005.1 |
| 20260501223254 | 64 | 60 | 13.0 | 21.0 | 0.00 | 0.00 | 0.00 | 90 | 1005.1 |
| 20260501222533 | 64 | 53 | 14.0 | 21.0 | 0.00 | 0.00 | 0.00 | 90 | 1006.5 |
| 20260501222035 | 64 | 22 | 13.0 | 21.0 | 0.00 | 0.00 | 0.00 | 90 | 1006.5 |
| 20260501221535 | 64 | 21 | 12.0 | 19.0 | 0.00 | 0.00 | 0.00 | 90 | 1006.5 |
| 20260501221033 | 64 | 53 | 11.0 | 16.0 | 0.00 | 0.00 | 0.00 | 90 | 1006.7 |
| 20260501220533 | 64 | 11 | 10.0 | 15.0 | 0.00 | 0.00 | 0.00 | 90 | 1006.7 |
| 20260501220034 | 64 | 41 | 9.0 | 15.0 | 0.00 | 0.00 | 0.00 | 90 | 1006.7 |
| 20260501215529 | 65 | 30 | 8.0 | 12.0 | 0.00 | 0.00 | 0.00 | 90 | 1006.6 |
| 20260501215030 | 65 | 43 | 9.0 | 18.0 | 0.00 | 0.00 | 0.00 | 90 | 1006.6 |
| 20260501214528 | 65 | 31 | 11.0 | 18.0 | 0.00 | 0.00 | 0.00 | 90 | 1006.6 |
| 20260501214029 | 64 | 28 | 13.0 | 18.0 | 0.00 | 0.00 | 0.00 | 90 | 1006.8 |
| 20260501213529 | 64 | 36 | 14.0 | 22.0 | 0.00 | 0.00 | 0.00 | 90 | 1006.8 |
| 20260501213028 | 64 | 31 | 13.0 | 22.0 | 0.00 | 0.00 | 0.00 | 90 | 1006.8 |
| 20260501212533 | 65 | 13 | 13.0 | 21.0 | 0.00 | 0.00 | 0.00 | 90 | 1007.0 |
| 20260501212300 | 65 | 49 | 13.0 | 24.0 | 0.00 | 0.00 | 0.00 | 90 | 1007.0 |
| 20260501211749 | 65 | 20 | 13.0 | 24.0 | 0.00 | 0.00 | 0.00 | 90 | 1007.0 |
| 20260501211012 | 65 | 16 | 14.0 | 24.0 | 0.00 | 0.00 | 0.00 | 90 | 1006.7 |
| 20260501210511 | 65 | 90 | 15.0 | 24.0 | 0.00 | 0.00 | 0.00 | 90 | 1006.7 |
| 20260501210011 | 65 | 18 | 15.0 | 22.0 | 0.00 | 0.00 | 0.00 | 90 | 1006.7 |
| 20260501205511 | 65 | 18 | 15.0 | 22.0 | 0.00 | 0.00 | 0.00 | 90 | 1006.7 |
| 20260501205238 | 65 | 21 | 15.0 | 22.0 | 0.00 | 0.00 | 0.00 | 90 | 1006.7 |
| 20260501204510 | 65 | 23 | 14.0 | 22.0 | 0.00 | 0.00 | 0.00 | 90 | 1006.7 |
| 20260501204012 | 65 | 15 | 12.0 | 18.0 | 0.00 | 0.00 | 0.00 | 90 | 1007.1 |
| 20260501203510 | 65 | 19 | 11.0 | 17.0 | 0.00 | 0.00 | 0.00 | 90 | 1007.1 |
| 20260501203010 | 65 | 31 | 10.0 | 15.0 | 0.00 | 0.00 | 0.00 | 90 | 1007.1 |
| 20260501202512 | 65 | 23 | 10.0 | 20.0 | 0.00 | 0.00 | 0.00 | 90 | 1007.7 |
| 20260501202006 | 65 | 9 | 10.0 | 20.0 | 0.00 | 0.00 | 0.00 | 90 | 1007.7 |
| 20260501201455 | 65 | 8 | 12.0 | 20.0 | 0.00 | 0.00 | 0.00 | 90 | 1007.7 |
| 20260501200946 | 65 | 33 | 13.0 | 20.0 | 0.00 | 0.00 | 0.00 | 90 | 1006.7 |
| 20260501200435 | 65 | 359 | 11.0 | 20.0 | 0.00 | 0.00 | 0.00 | 90 | 1006.7 |
| 20260501195930 | 65 | 344 | 8.0 | 18.0 | 0.00 | 0.00 | 0.00 | 90 | 1005.0 |
| 20260501195420 | 65 | 359 | 8.0 | 14.0 | 0.00 | 0.00 | 0.00 | 90 | 1005.0 |
| 20260501195143 | 65 | 11 | 8.0 | 14.0 | 0.00 | 0.00 | 0.00 | 90 | 1005.0 |
| 20260501194408 | 65 | 72 | 6.0 | 16.0 | 0.00 | 0.00 | 0.00 | 89 | 1006.1 |
| 20260501193902 | 65 | 222 | 6.0 | 16.0 | 0.00 | 0.00 | 0.00 | 90 | 1006.1 |
| 20260501193617 | 65 | 270 | 8.0 | 23.0 | 0.00 | 0.00 | 0.00 | 89 | 1006.1 |
| 20260501192842 | 65 | 7 | 13.0 | 23.0 | 0.00 | 0.00 | 0.00 | 89 | 1002.7 |
| 20260501192332 | 65 | 16 | 16.0 | 25.0 | 0.00 | 0.00 | 0.00 | 89 | 1002.7 |
| 20260501191825 | 65 | 46 | 16.0 | 26.0 | 0.00 | 0.00 | 0.00 | 89 | 1002.7 |
| 20260501191312 | 65 | 34 | 13.0 | 26.0 | 0.00 | 0.00 | 0.00 | 89 | 1004.2 |
| 20260501190806 | 65 | 63 | 12.0 | 22.0 | 0.00 | 0.00 | 0.00 | 89 | 1004.2 |
| 20260501190255 | 65 | 57 | 12.0 | 22.0 | 0.00 | 0.00 | 0.00 | 89 | 1004.2 |
| 20260501185750 | 65 | 63 | 12.0 | 22.0 | 0.00 | 0.00 | 0.00 | 89 | 1005.1 |
| 20260501185248 | 65 | 39 | 11.0 | 22.0 | 0.00 | 0.00 | 0.00 | 89 | 1005.1 |
| 20260501184747 | 65 | 42 | 9.0 | 19.0 | 0.00 | 0.00 | 0.00 | 89 | 1005.1 |
| 20260501184247 | 65 | 30 | 10.0 | 17.0 | 0.00 | 0.00 | 0.00 | 89 | 1006.3 |
| 20260501184005 | 65 | 21 | 11.0 | 17.0 | 0.00 | 0.00 | 0.00 | 89 | 1006.3 |
| 20260501183246 | 65 | 57 | 11.0 | 24.0 | 0.00 | 0.00 | 0.00 | 89 | 1006.3 |
| 20260501182747 | 65 | 46 | 12.0 | 24.0 | 0.00 | 0.00 | 0.00 | 89 | 1006.1 |
| 20260501182246 | 65 | 28 | 15.0 | 24.0 | 0.00 | 0.00 | 0.00 | 89 | 1006.1 |
| 20260501181746 | 65 | 28 | 15.0 | 24.0 | 0.00 | 0.00 | 0.00 | 89 | 1006.1 |
| 20260501181247 | 65 | 31 | 14.0 | 19.0 | 0.00 | 0.00 | 0.00 | 89 | 1007.3 |
| 20260501180747 | 65 | 35 | 12.0 | 19.0 | 0.00 | 0.00 | 0.00 | 89 | 1007.3 |
| 20260501180246 | 65 | 23 | 9.0 | 15.0 | 0.00 | 0.00 | 0.00 | 89 | 1007.3 |
| 20260501180012 | 65 | 16 | 9.0 | 14.0 | 0.00 | 0.00 | 0.00 | 89 | 1006.7 |
| 20260501175242 | 65 | 20 | 11.0 | 16.0 | 0.00 | 0.00 | 0.00 | 89 | 1006.7 |
| 20260501174731 | 65 | 26 | 12.0 | 19.0 | 0.00 | 0.00 | 0.00 | 89 | 1006.7 |
| 20260501174227 | 65 | 35 | 12.0 | 19.0 | 0.00 | 0.00 | 0.00 | 89 | 1006.6 |
| 20260501173730 | 65 | 26 | 13.0 | 21.0 | 0.00 | 0.00 | 0.00 | 89 | 1006.6 |
| 20260501173227 | 65 | 28 | 12.0 | 21.0 | 0.00 | 0.00 | 0.00 | 89 | 1006.6 |
| 20260501172729 | 65 | 41 | 10.0 | 17.0 | 0.00 | 0.00 | 0.00 | 89 | 1006.9 |
| 20260501172226 | 65 | 30 | 10.0 | 17.0 | 0.00 | 0.00 | 0.00 | 89 | 1006.9 |
| 20260501171953 | 65 | 40 | 11.0 | 17.0 | 0.00 | 0.00 | 0.00 | 89 | 1006.9 |
| 20260501171227 | 65 | 31 | 11.0 | 17.0 | 0.00 | 0.00 | 0.00 | 89 | 1007.7 |
| 20260501170958 | 65 | 90 | 10.0 | 0.0 | 0.00 | 0.00 | 0.00 | 89 | 1008.2 |
| 20260501165824 | 65 | 39 | 10.0 | 19.0 | 0.00 | 0.00 | 0.00 | 88 | 1008.2 |
| 20260501165324 | 65 | 34 | 11.0 | 19.0 | 0.00 | 0.00 | 0.00 | 88 | 1008.2 |
| 20260501164811 | 65 | 32 | 12.0 | 21.0 | 0.00 | 0.00 | 0.00 | 88 | 1008.2 |
| 20260501164255 | 65 | 30 | 13.0 | 21.0 | 0.00 | 0.00 | 0.00 | 88 | 1008.2 |
| 20260501163744 | 65 | 22 | 13.0 | 21.0 | 0.00 | 0.00 | 0.00 | 88 | 1008.2 |
| 20260501163234 | 65 | 23 | 13.0 | 21.0 | 0.00 | 0.00 | 0.00 | 88 | 1008.2 |
| 20260501162731 | 65 | 33 | 13.0 | 25.0 | 0.00 | 0.00 | 0.00 | 88 | 1008.7 |
| 20260501162236 | 65 | 31 | 13.0 | 25.0 | 0.00 | 0.00 | 0.00 | 88 | 1008.7 |
| 20260501161731 | 65 | 16 | 12.0 | 20.0 | 0.00 | 0.00 | 0.00 | 88 | 1008.7 |
| 20260501161231 | 65 | 16 | 14.0 | 24.0 | 0.00 | 0.00 | 0.00 | 88 | 1008.8 |
| 20260501160729 | 65 | 21 | 16.0 | 24.0 | 0.00 | 0.00 | 0.00 | 88 | 1008.8 |
| 20260501160231 | 65 | 355 | 15.0 | 24.0 | 0.00 | 0.00 | 0.00 | 88 | 1008.8 |
| 20260501155728 | 66 | 9 | 15.0 | 28.0 | 0.00 | 0.00 | 0.00 | 88 | 1009.3 |
| 20260501155230 | 66 | 25 | 15.0 | 28.0 | 0.00 | 0.00 | 0.00 | 88 | 1009.3 |
| 20260501154728 | 67 | 352 | 16.0 | 28.0 | 0.00 | 0.00 | 0.00 | 88 | 1009.3 |
| 20260501154232 | 67 | 353 | 17.0 | 28.0 | 0.00 | 0.00 | 0.00 | 88 | 1008.9 |
| 20260501153936 | 67 | 340 | 13.0 | 27.0 | 0.00 | 0.00 | 0.00 | 88 | 1008.9 |
| 20260501153158 | 67 | 349 | 10.0 | 17.0 | 0.00 | 0.00 | 0.00 | 88 | 1008.9 |
| 20260501152910 | 67 | 7 | 10.0 | 16.0 | 0.00 | 0.00 | 0.00 | 88 | 1008.0 |
| 20260501152142 | 67 | 24 | 11.0 | 16.0 | 0.00 | 0.00 | 0.00 | 88 | 1008.0 |
| 20260501151637 | 67 | 20 | 10.0 | 17.0 | 0.00 | 0.00 | 0.00 | 88 | 1008.0 |
| 20260501151127 | 67 | 29 | 10.0 | 17.0 | 0.00 | 0.00 | 0.00 | 88 | 1007.7 |
| 20260501150617 | 67 | 44 | 10.0 | 16.0 | 0.00 | 0.00 | 0.00 | 88 | 1007.7 |
| 20260501150110 | 67 | 28 | 10.0 | 16.0 | 0.00 | 0.00 | 0.00 | 88 | 1007.7 |
| 20260501145821 | 67 | 32 | 10.0 | 16.0 | 0.00 | 0.00 | 0.00 | 88 | 1007.7 |
| 20260501145054 | 67 | 32 | 10.0 | 16.0 | 0.00 | 0.00 | 0.00 | 88 | 1007.7 |
| 20260501144540 | 67 | 52 | 10.0 | 20.0 | 0.00 | 0.00 | 0.00 | 88 | 1007.7 |
| 20260501144250 | 67 | 27 | 11.0 | 20.0 | 0.00 | 0.00 | 0.00 | 88 | 1008.0 |
| 20260501143520 | 67 | 5 | 14.0 | 22.0 | 0.00 | 0.00 | 0.00 | 88 | 1008.0 |
| 20260501143011 | 67 | 55 | 13.0 | 22.0 | 0.00 | 0.00 | 0.00 | 88 | 1008.0 |
| 20260501142728 | 67 | 71 | 13.0 | 22.0 | 0.00 | 0.00 | 0.00 | 88 | 1008.2 |